Dewpoint
60 66 69 73 74 74 73 73 73 73 72 73 73 73 73 73 73 74 74 74 74 74 74 73 73 73 73 73 73 73 73 73 73 72 72 72 72 72 72 72 71 71 70 70 69 69 69 69 70 70 70 70 71 71 71 70 70 70 70 70 70 69 70 69 69 68 69 69 69 68 69 68 69 69 68 68 67 67 67 66 66 62 63 64 66
60 67 70 72 74 74 73 72 73 73 73 73 73 73 73 73 73 73 73 73 73 73 73 73 73 73 73 72 72 72 73 72 72 72 72 72 72 72 72 71 71 71 70 70 69 68 69 69 70 70 70 70 71 71 71 70 70 70 70 70 70 70 70 70 70 69 69 69 69 69 69 69 69 69 68 68 67 67 67 67 66 62 62 66 67
64 67 70 71 74 74 73 73 73 73 73 73 73 73 73 73 73 73 73 73 73 73 73 73 73 72 72 72 72 72 72 72 72 73 73 72 72 72 71 71 70 70 70 70 70 69 69 70 70 70 71 71 71 71 71 71 71 71 70 70 70 70 70 70 69 69 69 68 69 69 69 69 69 68 68 67 67 67 67 67 67 65 63 66 65
65 69 69 73 74 74 74 73 72 73 73 72 73 73 73 73 72 73 72 73 73 73 73 73 73 72 72 72 72 72 72 73 73 73 72 71 70 70 70 70 70 70 70 70 70 70 70 70 70 71 71 71 71 71 71 71 71 70 71 70 70 70 70 70 70 70 69 69 69 69 68 67 67 68 68 67 67 67 67 67 67 66 65 65 65
65 67 69 72 72 73 74 73 73 73 73 73 73 73 73 73 73 73 73 72 73 73 73 73 73 73 72 72 72 72 72 73 72 72 71 71 70 70 70 70 70 69 70 70 69 70 70 70 70 70 70 70 70 71 71 71 71 71 71 70 70 70 69 69 69 70 70 70 70 70 63 63 65 68 68 67 67 67 67 67 67 66 66 65 66
67 68 70 70 70 72 74 73 73 73 73 72 73 73 73 73 73 73 73 73 72 72 73 72 73 73 73 72 72 72 72 72 72 71 70 70 70 70 70 70 69 69 69 70 70 69 70 70 70 70 70 71 71 71 71 71 71 71 71 71 70 70 70 70 70 69 69 70 70 65 64 63 62 65 68 68 67 67 67 66 66 66 65 65 66
67 69 68 69 70 72 74 73 73 73 72 72 72 72 72 73 73 73 73 72 72 72 72 72 72 72 73 72 72 72 72 72 71 70 70 70 70 70 69 69 69 69 69 70 70 69 69 70 70 70 71 71 71 71 71 71 71 71 71 71 71 71 71 70 70 70 70 68 66 65 63 62 61 63 68 68 67 67 67 66 66 65 66 65 65
69 68 68 68 70 73 74 73 73 73 72 72 72 72 72 72 73 72 73 72 72 72 72 72 72 72 72 72 72 72 71 71 70 70 70 70 70 69 69 68 68 68 69 69 70 69 69 70 71 71 71 70 71 70 70 70 70 70 70 69 70 70 71 72 71 71 71 68 63 64 64 63 62 63 68 68 68 67 67 66 67 66 65 66 66
68 68 68 69 70 73 74 73 73 73 73 72 72 72 72 72 72 72 72 72 72 72 72 72 72 72 72 71 71 71 70 70 70 69 69 69 69 69 68 68 68 69 69 69 70 70 70 70 71 71 71 70 70 70 70 70 70 70 69 69 69 69 70 71 72 72 70 64 62 63 64 63 62 63 68 68 68 67 67 65 67 65 66 67 66
68 69 68 69 70 74 74 73 73 73 72 72 72 72 72 72 72 72 72 72 71 71 71 71 72 71 71 70 70 70 70 70 69 69 69 69 68 68 69 69 68 68 69 69 69 70 70 71 71 71 70 70 70 70 70 70 70 70 69 69 68 68 69 71 72 72 67 62 59 61 65 74 60 61 67 68 67 67 67 68 68 68 67 66 68
67 68 69 70 71 74 73 73 73 73 72 72 72 72 72 72 72 72 72 72 72 71 71 71 70 70 70 70 70 69 69 69 68 68 68 68 68 68 68 68 68 68 68 69 69 69 70 71 70 70 70 70 71 70 70 70 69 69 70 69 68 67 67 70 73 66 63 60 61 63 63 70 65 65 68 67 67 67 67 68 67 67 67 67 67
67 69 70 70 74 73 73 73 73 73 72 72 72 72 72 72 72 72 72 72 72 71 71 71 71 70 70 70 69 69 69 68 68 68 67 67 67 67 68 68 68 68 68 69 69 69 70 70 71 71 71 71 70 70 70 69 69 69 69 70 67 67 67 66 68 61 62 59 60 65 62 60 63 66 68 68 68 67 67 68 68 67 67 67 67
68 69 70 71 72 73 73 73 73 73 72 72 72 72 72 72 72 72 72 72 71 71 70 70 70 70 70 69 69 69 68 68 68 67 67 67 67 68 68 68 68 68 69 69 69 70 70 70 70 70 71 71 70 70 69 69 69 69 69 70 70 65 65 66 60 60 59 59 62 63 61 64 67 70 69 68 68 67 67 68 67 67 67 68 68
68 69 70 70 70 73 73 73 73 73 73 73 73 72 72 72 72 72 72 72 71 71 70 70 70 70 70 69 69 68 68 67 67 67 67 67 67 68 68 68 68 69 69 69 70 70 70 70 71 71 71 71 70 70 69 69 69 68 69 70 70 69 66 70 65 60 60 60 64 61 63 65 68 70 69 68 68 68 68 68 67 67 68 68 68
68 69 70 69 70 71 73 73 73 73 73 73 73 73 72 73 73 73 72 72 71 70 70 70 70 70 69 69 69 68 68 68 68 67 67 67 67 68 68 68 70 69 69 70 70 70 70 70 70 70 70 70 70 70 69 68 69 69 69 70 70 68 69 57 55 59 59 60 62 60 61 65 71 69 69 68 68 68 68 68 68 68 69 69 69
68 69 68 70 69 69 72 73 73 73 73 73 73 73 73 73 73 73 72 72 71 70 70 70 70 70 70 69 68 68 68 67 67 67 67 68 68 67 68 69 69 69 69 70 70 70 71 70 70 70 70 70 69 69 70 69 69 69 69 70 70 68 69 70 57 60 61 62 62 63 63 67 71 70 69 68 68 68 69 68 69 69 69 69 69
68 69 69 69 69 69 69 71 72 73 73 73 73 73 73 73 73 73 72 71 70 70 70 71 71 70 70 69 69 69 68 68 68 68 68 68 67 68 68 68 68 69 69 70 70 70 70 70 70 70 70 70 70 70 70 70 69 69 70 70 69 68 69 71 58 61 60 60 59 61 65 67 70 69 69 69 69 69 69 69 69 69 69 69 69
68 68 69 68 68 68 68 69 70 71 71 73 73 73 73 73 73 72 72 71 70 70 70 71 71 70 70 70 70 69 68 69 68 68 67 68 68 68 68 68 68 68 69 69 69 70 70 70 69 70 70 70 70 70 70 69 69 69 70 69 67 68 69 71 61 61 61 62 61 64 64 71 70 69 69 69 69 70 70 69 70 69 69 68 68
66 67 69 68 67 67 67 67 70 68 69 71 71 72 73 73 73 72 72 72 71 70 70 71 71 71 70 70 70 68 68 69 68 68 68 68 68 68 68 68 68 68 69 69 69 70 70 69 69 70 70 70 70 69 68 69 69 69 70 68 67 67 69 69 60 60 62 63 63 64 68 70 70 69 69 70 69 69 69 69 68 68 68 68 68
66 68 67 67 67 67 67 66 67 68 69 70 70 71 72 73 72 72 72 72 71 71 71 71 71 71 71 70 69 69 68 68 68 67 68 68 67 67 68 69 68 68 69 69 69 69 69 69 70 70 70 69 69 68 67 68 68 68 68 67 66 68 65 61 61 60 62 65 68 67 70 69 69 69 69 69 69 68 68 67 67 66 65 65 66
66 67 67 67 66 66 67 67 67 68 68 69 70 71 70 72 72 72 72 71 71 71 71 71 72 71 70 70 70 68 70 68 68 66 68 67 68 68 68 68 68 68 68 68 69 69 69 69 69 70 69 69 67 67 67 67 67 67 67 66 67 67 64 64 63 62 62 70 66 69 70 70 69 69 69 68 67 67 66 66 65 65 64 63 64
65 66 66 66 66 67 66 66 67 66 67 68 68 69 72 71 71 71 71 71 71 70 71 70 72 72 70 70 69 67 66 67 67 67 67 67 67 67 68 68 68 68 68 68 68 69 68 69 69 69 69 68 68 67 65 67 67 67 66 67 68 64 65 65 64 67 68 66 69 69 70 69 69 68 68 67 67 66 66 65 65 65 62 62 63
64 65 66 68 67 67 67 66 66 67 67 66 67 68 69 69 69 69 69 70 70 69 67 69 68 70 68 66 68 67 65 66 67 65 66 67 66 67 68 68 68 68 68 68 68 68 69 69 69 69 67 66 65 56 58 60 63 67 66 68 64 63 65 65 66 69 66 67 70 69 69 68 68 68 68 67 66 65 65 65 63 61 61 62 62
64 65 66 68 67 66 66 66 66 67 67 67 68 68 69 68 68 69 68 70 69 69 67 68 68 67 66 67 65 67 66 67 67 67 67 66 68 69 68 68 68 68 68 68 69 69 69 68 69 68 69 63 56 52 55 58 60 63 65 63 63 64 65 64 68 66 68 66 67 68 68 68 68 67 67 66 65 65 64 64 62 61 61 61 61
65 65 66 67 66 66 66 66 67 67 67 66 67 68 68 68 67 67 68 67 69 68 67 68 69 67 67 67 65 67 66 66 67 67 66 66 66 67 67 67 67 67 67 68 65 65 63 59 61 61 55 54 53 57 59 60 63 63 63 63 65 65 64 64 71 70 66 69 68 68 67 67 67 67 66 65 65 64 63 63 62 61 60 60 60
66 65 65 66 67 67 68 66 67 67 67 67 68 68 68 67 67 66 67 68 68 68 67 67 67 69 67 66 67 68 67 65 67 66 66 66 65 64 64 66 66 66 63 65 61 62 58 55 54 50 53 57 60 60 61 64 63 62 62 64 65 65 63 72 70 67 67 69 67 67 67 67 67 67 66 65 64 63 62 62 61 60 60 59 59
65 65 66 66 67 67 68 66 66 67 68 66 66 67 67 67 67 65 66 66 67 67 66 66 67 68 67 67 67 65 64 64 65 65 65 65 65 65 64 66 66 65 64 62 63 60 55 53 54 56 58 58 59 61 62 63 64 61 63 62 63 64 69 70 68 68 67 67 67 67 67 67 67 66 65 64 63 62 61 61 61 60 59 59 59
66 67 66 66 67 67 68 67 66 67 67 66 67 66 67 67 67 67 67 65 65 66 66 66 67 67 68 68 67 64 63 64 65 65 65 66 66 66 66 63 63 62 62 61 59 55 53 52 57 56 55 59 59 62 62 63 64 65 62 63 64 65 70 70 68 67 67 67 66 67 67 66 67 66 64 64 63 61 59 60 60 59 58 59 58
66 67 67 67 67 67 68 67 67 67 67 67 66 66 66 67 67 66 67 67 67 66 66 68 67 66 68 68 68 66 63 65 65 65 65 66 65 66 64 63 63 60 61 59 56 57 55 55 58 57 60 60 61 65 63 62 65 66 63 62 64 65 69 69 68 68 66 67 66 65 66 66 65 65 64 63 63 60 59 59 59 58 59 60 58
66 67 67 67 67 68 68 67 67 67 67 67 66 66 66 66 66 66 66 68 67 67 68 66 66 66 66 68 67 66 64 63 65 65 64 66 65 67 66 64 62 63 60 60 57 55 55 56 59 59 57 61 63 65 64 63 61 63 61 62 66 65 69 69 67 66 67 66 65 65 66 65 64 64 63 62 62 60 59 59 58 57 61 60 59
67 67 66 66 68 68 68 68 68 68 66 67 65 67 67 66 66 65 67 67 67 68 67 67 67 67 66 68 67 67 67 65 66 66 65 65 65 67 65 65 62 61 61 60 60 58 59 60 63 61 61 62 64 64 63 63 60 58 61 61 65 67 68 68 69 67 66 66 65 65 64 65 63 61 60 60 60 60 59 58 57 56 60 59 59
67 67 66 66 68 68 68 68 68 68 67 67 67 65 65 65 66 66 65 67 68 67 66 67 66 66 66 68 68 68 68 66 66 67 66 65 65 64 65 64 63 62 61 61 59 62 63 63 66 67 67 67 66 66 66 63 60 57 61 60 65 66 67 68 69 67 66 65 66 65 63 61 61 59 59 58 58 59 58 59 58 56 57 58 59
67 68 67 68 68 69 68 68 67 69 68 67 66 66 66 65 66 66 66 67 68 68 66 66 67 67 68 68 68 68 68 66 66 67 67 65 65 66 64 66 65 64 66 67 66 68 66 67 68 67 67 67 67 67 63 64 63 62 61 62 65 65 67 65 68 68 67 66 66 63 62 60 56 58 58 58 58 58 57 56 57 58 57 56 59
67 67 69 68 68 69 68 69 69 69 69 68 67 66 66 65 65 65 66 67 67 66 66 67 67 67 68 68 68 67 67 65 65 67 66 65 66 66 65 64 64 68 68 68 66 64 63 64 65 66 65 66 66 66 62 62 64 63 65 64 65 68 68 66 66 65 67 65 64 63 61 60 58 56 54 59 59 58 57 56 56 56 56 56 58
68 68 68 68 68 69 69 68 68 69 69 69 68 67 67 65 64 66 65 66 66 65 65 67 66 66 67 67 68 67 68 65 66 67 66 65 65 64 66 63 67 68 66 67 65 64 65 65 64 65 67 65 64 64 62 64 64 64 66 67 67 67 68 66 66 64 64 65 65 63 61 59 57 57 55 54 57 57 57 56 58 58 57 55 57
70 69 69 68 69 69 69 69 69 68 69 69 69 68 67 67 66 65 66 67 64 65 65 66 66 65 66 67 68 67 67 66 67 67 67 65 63 64 63 66 68 67 66 67 66 63 64 66 68 69 67 62 63 64 64 65 65 67 69 68 67 67 67 65 65 64 64 64 62 61 61 60 59 56 55 53 55 56 57 56 56 56 56 55 56
70 70 68 68 69 70 69 70 69 69 69 69 69 69 68 67 67 66 66 67 66 64 64 66 66 66 65 65 67 68 67 67 67 68 67 67 64 64 64 68 68 67 67 67 63 63 66 66 70 69 69 62 60 62 64 66 66 66 66 67 68 67 66 67 65 64 63 62 62 60 60 57 57 57 57 54 55 54 55 55 55 55 55 55 55
71 70 69 69 69 69 69 70 70 69 69 69 69 69 69 68 67 67 67 66 67 65 65 65 65 64 66 65 66 67 67 67 68 68 68 68 66 65 66 68 66 67 67 66 64 65 67 70 69 68 66 63 63 64 65 65 65 65 67 67 67 68 67 67 67 65 62 60 60 59 57 56 53 52 53 55 54 53 52 53 54 54 55 54 55
71 71 69 68 68 68 69 70 70 69 69 69 70 69 70 69 68 68 67 67 67 65 64 64 64 65 65 66 66 67 67 68 68 68 69 66 65 65 66 68 66 67 66 66 65 66 68 69 69 68 67 64 65 66 64 64 64 64 65 66 66 66 65 66 67 66 62 61 59 56 54 52 52 51 54 55 55 56 56 54 50 47 52 54 54
72 71 69 68 68 69 69 69 69 69 69 69 69 68 68 67 66 67 66 66 66 64 66 64 65 65 65 66 66 67 67 68 68 69 69 68 66 64 66 67 66 66 65 64 63 63 67 68 67 67 66 66 66 66 65 64 63 64 62 62 63 65 66 65 64 64 61 59 56 54 51 50 50 51 52 52 54 54 54 53 50 45 48 51 53
72 71 69 69 68 68 68 68 69 70 69 68 68 67 67 67 66 66 66 66 65 65 65 66 65 65 65 65 66 66 68 68 67 68 69 68 67 66 67 67 66 65 65 65 65 67 67 68 66 67 66 65 65 66 66 63 61 60 60 61 61 61 63 64 63 62 59 56 53 52 50 50 50 50 51 52 52 52 51 51 50 50 49 49 51
71 71 70 69 68 69 69 69 69 69 69 68 67 67 67 65 64 64 64 64 63 62 64 65 67 66 67 66 66 68 68 68 68 68 69 68 68 66 67 66 66 65 66 65 67 67 68 67 66 65 65 64 64 65 65 63 61 59 58 57 57 59 61 62 62 61 59 56 55 53 52 51 47 50 51 51 52 51 51 51 50 48 48 50 52
71 71 71 70 69 69 69 69 69 68 68 69 67 67 67 67 65 64 63 62 63 66 64 65 67 66 67 67 67 68 68 67 68 68 69 69 67 66 66 66 67 65 65 66 71 68 67 67 66 65 64 66 64 65 66 64 62 60 60 58 56 56 58 59 59 58 57 55 54 53 50 48 45 50 49 49 50 50 50 49 48 49 49 50 50
70 70 71 70 68 68 69 69 68 68 68 69 68 69 68 68 66 66 66 65 64 66 68 68 67 67 67 68 68 69 68 68 68 68 68 69 68 66 66 66 66 67 66 65 67 68 68 67 67 66 65 65 63 64 66 65 65 60 58 58 58 57 54 54 55 56 55 54 53 51 50 49 51 51 50 49 49 50 51 50 48 50 50 50 50
69 69 70 69 68 68 68 69 68 69 68 69 69 69 68 66 66 66 66 66 67 66 67 66 67 67 66 67 68 69 68 68 68 68 67 68 68 67 66 66 66 67 66 65 68 67 66 66 68 68 66 65 63 64 65 66 64 67 63 58 57 56 56 54 54 54 55 53 51 50 51 51 52 51 51 50 50 51 51 52 51 50 50 50 50
68 69 69 69 69 68 69 69 69 68 68 69 70 69 67 66 65 64 63 64 65 66 65 65 66 66 64 66 68 68 68 68 68 68 67 67 68 67 67 66 66 66 66 65 67 68 67 66 66 68 67 67 65 63 64 64 65 65 62 62 61 58 55 55 54 52 55 55 52 50 51 51 50 50 50 50 50 51 51 52 52 51 49 49 49
68 70 70 70 70 69 69 69 69 68 68 68 69 69 68 67 67 66 65 65 64 65 66 66 66 65 66 67 68 69 68 69 69 68 68 67 68 68 68 67 66 66 66 66 66 68 66 65 66 67 67 67 66 64 63 63 64 65 64 64 63 63 56 55 57 55 51 52 52 51 51 47 47 46 46 48 50 50 52 52 51 48 48 48 47
69 69 71 71 70 70 69 68 68 68 68 68 68 69 68 67 68 68 67 66 67 65 66 66 67 67 66 68 69 68 69 68 69 67 67 67 67 67 67 67 65 66 64 64 67 68 68 67 67 69 68 66 66 65 65 64 61 62 64 62 63 61 59 59 58 53 52 51 50 51 51 50 50 50 47 47 46 49 51 52 50 48 47 44 46
68 69 70 71 71 70 69 69 68 67 67 69 68 68 69 69 69 68 67 67 67 66 66 66 67 67 68 69 68 68 69 68 68 69 68 66 67 68 67 66 66 66 64 63 64 67 67 68 68 67 67 66 66 66 66 64 63 62 62 62 61 59 58 60 59 56 53 51 50 49 48 50 51 50 50 48 47 49 49 49 48 47 47 47 46
68 69 70 71 71 70 68 69 68 67 67 69 68 68 69 69 69 69 69 67 67 66 66 66 67 68 68 68 68 67 67 68 69 68 68 67 67 67 67 66 66 65 64 64 65 66 67 68 69 68 67 67 65 65 66 65 64 63 62 62 61 59 60 60 58 56 53 53 49 47 49 49 48 48 51 49 48 47 47 49 50 48 46 46 43
69 69 70 71 71 69 68 68 67 67 68 69 69 69 69 69 70 70 70 69 68 67 66 67 67 68 67 67 67 67 68 68 69 69 69 68 68 67 67 67 67 67 65 65 67 67 67 68 68 69 67 66 66 65 65 66 65 64 64 62 61 59 58 57 56 55 53 52 51 50 49 47 46 47 49 48 47 44 43 48 47 47 47 47 44